Meteo Giornale » Osservazioni meteo Stati Uniti (USA) » New Iberia Acadiana
ore: 16:53 - Osservazioni Meteo New Iberia Acadiana
Lat. 30° 1' N Lon. 91° 53' W Alt. 7 metri s.l.m.
29 °C
Poco Nuvoloso
Temp. 24 Ore
25 °C
29 °C
Sud-Est
18.5 Km/h
Dew point 25 °C
Umidità 79 %
Visibilità 10 Km
Il sole sorge alle ore 06:44
Il sole tramonta alle ore 19:30
| Data e Ora | Cielo e Fenomeni | T °C | DP °C | Um. % | Pres. hPa | Vis. km | Vento km/h | |
|---|---|---|---|---|---|---|---|---|
| Oggi h: 16:53 | Poco Nuvoloso | 29 | 25 | 79 | 1014 | 10 | SE 18.5 | |
| Oggi h: 16:19 | Nuvoloso | 29 | 25 | 79 | 1015 | 10 | SE 14.8 | |
| Oggi h: 16:09 | Molto Nuvoloso | 29 | 26 | 83 | 1015 | 10 | S/SE 16.7 | |
| Oggi h: 15:53 | Poco Nuvoloso | 29 | 26 | 83 | 1015 | 10 | S/SE 13 | |
| Oggi h: 15:15 | Molto Nuvoloso | 29 | 26 | 83 | 1015 | 10 | S/SE 14.8 | |
| Oggi h: 14:53 | Molto Nuvoloso | 29 | 26 | 83 | 1015 | 10 | SE 14.8 | |
| Oggi h: 14:13 | Molto Nuvoloso | 29 | 26 | 83 | 1016 | 10 | SE 14.8 | |
| Oggi h: 13:53 | Poco Nuvoloso | 29 | 26 | 83 | 1016 | 10 | E/SE 14.8 | |
| Oggi h: 12:53 | Poco Nuvoloso | 27 | 25 | 88 | 1016 | 10 | E 16.7 | |
| Oggi h: 12:00 | Sereno | 26 | 24 | 88 | 1016 | 10 | E/SE 14.8 | |
| Oggi h: 11:53 | Temporale nelle vicinanze | 26 | 24 | 88 | 1016 | 10 | E/SE 16.7 | |
| Oggi h: 11:30 | Temporale nelle vicinanze Pioggia | 26 | 24 | 88 | 1016 | 14 | E/SE 27.8 | |
| Oggi h: 11:21 | Temporale | 27 | 25 | 88 | 1016 | 10 | E/SE 25.9 | |
| Oggi h: 11:12 | Temporale nelle vicinanze Pioggia | 27 | 26 | 94 | 1016 | 13 | E/SE 22.2 | |
| Oggi h: 10:58 | Temporale nelle vicinanze | 28 | 26 | 88 | 1016 | 10 | E 18.5 | |
| Oggi h: 10:53 | Coperto | 28 | 26 | 88 | 1016 | 10 | E 16.7 | |
| Oggi h: 10:08 | Pioggia | 27 | 26 | 94 | 1016 | 10 | E 13 | |
| Oggi h: 09:53 | Pioggia Foschia | 26 | 26 | 100 | 1016 | 10 | E/NE 11.1 | |
| Oggi h: 08:53 | Pioggia | 26 | 24 | 88 | 1016 | 10 | E 13 | |
| Oggi h: 07:53 | Pioggia | 25 | 24 | 94 | 1016 | 10 | E/SE 16.7 | |
| Oggi h: 07:26 | Pioggia Foschia | 25 | 24 | 94 | 1015 | 5 | E/SE 14.8 | |
| Oggi h: 07:22 | Pioggia Foschia | 25 | 24 | 94 | 1015 | 2 | E/SE 18.5 | |
| Oggi h: 07:10 | Temporale nelle vicinanze Pioggia | 25 | 24 | 94 | 1015 | 2 | SE 14.8 | |
| Oggi h: 07:06 | Temporale nelle vicinanze Pioggia | 25 | 24 | 94 | 1015 | 3 | E/SE 14.8 | |
| Oggi h: 06:53 | Pioggia | 25 | 24 | 94 | 1015 | 10 | E 22.2 | |
| Oggi h: 05:53 | Pioggia | 25 | 24 | 94 | 1014 | 13 | E 13 | |
| Oggi h: 04:53 | Pioggia | 25 | 24 | 94 | 1014 | 10 | E/SE 16.7 | |
| Oggi h: 03:59 | Pioggia Foschia | 26 | 24 | 88 | 1015 | 8 | SE 18.5 | |
| Oggi h: 03:53 | Temporale nelle vicinanze Pioggia | 26 | 24 | 88 | 1015 | 10 | SE 16.7 | |
| Oggi h: 03:45 | Temporale nelle vicinanze | 26 | 24 | 88 | 1015 | 10 | SE 9.3 | |
| Oggi h: 02:53 | Nuvoloso | 26 | 24 | 88 | 1014 | 10 | E 11.1 | |
| Oggi h: 01:53 | Pioggia | 26 | 24 | 88 | 1015 | 10 | E/SE 16.7 | |
| Oggi h: 00:53 | Poco Nuvoloso | 26 | 24 | 88 | 1015 | 10 | E 13 | |
| Ieri h: 23:53 | Sereno | 26 | 24 | 88 | 1015 | 10 | E/NE 13 | |
| Ieri h: 22:53 | Sereno | 26 | 24 | 88 | 1015 | 10 | E/NE 13 | |
| Ieri h: 21:53 | Sereno | 26 | 23 | 83 | 1015 | 10 | E/NE 11.1 | |
| Ieri h: 20:53 | Sereno | 27 | 23 | 78 | 1015 | 10 | E 14.8 | |
| Ieri h: 19:53 | Sereno | 27 | 23 | 78 | 1014 | 10 | E/NE 13 | |
| Ieri h: 18:53 | Sereno | 28 | 24 | 78 | 1014 | 10 | E/NE 13 | |
| Ieri h: 17:53 | Sereno | 29 | 24 | 74 | 1015 | 10 | E/NE 13 | |



